Tracking 35331 objects as of 15-Sep-2026
HD Live streaming from Space Station
objects crossing your sky now

SL-3 R/B


SL-3 R/B is no longer on orbit
SL-3 R/B is classified as:


NORAD ID: 11849
Int'l Code: 1980-051B
Launch date: June 18, 1980
Source: Commonwealth of Independent States (former USSR) (CIS)
Launch site: TYURATAM MISSILE AND SPACE COMPLEX (TTMTR)
Decay date: 2016-05-13

Note: This is a ROCKET BODY
Your satellite tracking list
Your tracking list is empty




NASA's NSSDC Master Catalog

Two Line Element Set (TLE):
1 11849U 80051B   16134.66285752  .18118139  28606-5  22885-3 0  9990
2 11849  97.6851  91.5878 0009508 240.6204 119.7488 16.49289048975997
Source of the keplerian elements: AFSPC